| time (UTC) | temp F | wind direction | speed MPH | gust MPH | rain 1hr in | rain 24hr in | rain mn in | humidity % | barometer mb |
| 20260906211559 | 93 | 148 | 3.0 | 7.0 | 0.00 | 0.50 | 0.01 | 46 | 1011.0 |
| 20260906211515 | 93 | 190 | 3.0 | 7.0 | 0.00 | 0.50 | 0.01 | 57 | 1010.5 |
| 20260906210127 | 92 | 37 | 2.0 | 8.0 | 0.00 | 0.50 | 0.01 | 46 | 1011.1 |
| 20260906210013 | 92 | 49 | 2.0 | 8.0 | 0.00 | 0.50 | 0.01 | 58 | 1010.5 |
| 20260906204601 | 92 | 73 | 3.0 | 8.0 | 0.00 | 1.22 | 0.01 | 47 | 1011.3 |
| 20260906204511 | 92 | 87 | 3.0 | 8.0 | 0.00 | 1.22 | 0.01 | 59 | 1010.7 |
| 20260906203105 | 91 | 157 | 2.0 | 8.0 | 0.00 | 1.22 | 0.01 | 47 | 1011.4 |
| 20260906203009 | 91 | 153 | 2.0 | 8.0 | 0.00 | 1.22 | 0.01 | 59 | 1010.9 |
| 20260906201604 | 92 | 134 | 2.0 | 8.0 | 0.00 | 1.22 | 0.01 | 45 | 1011.8 |
| 20260906201507 | 92 | 123 | 2.0 | 8.0 | 0.00 | 1.22 | 0.01 | 57 | 1011.1 |
| 20260906200109 | 91 | 103 | 2.0 | 8.0 | 0.00 | 1.22 | 0.01 | 40 | 1011.9 |
| 20260906200003 | 91 | 103 | 2.0 | 8.0 | 0.00 | 1.22 | 0.01 | 51 | 1011.3 |
| 20260906194616 | 91 | 176 | 5.0 | 9.0 | 0.00 | 1.22 | 0.01 | 49 | 1011.7 |
| 20260906194602 | 91 | 176 | 6.0 | 10.0 | 0.00 | 1.22 | 0.01 | 37 | 1012.1 |
| 20260906193100 | 90 | 98 | 3.0 | 6.0 | 0.00 | 1.22 | 0.01 | 38 | 1012.1 |
| 20260906193059 | 90 | 100 | 4.0 | 6.0 | 0.00 | 1.22 | 0.01 | 50 | 1011.5 |
| 20260906191602 | 90 | 101 | 3.0 | 10.0 | 0.00 | 1.22 | 0.01 | 39 | 1012.1 |
| 20260906191557 | 90 | 103 | 4.0 | 10.0 | 0.00 | 1.22 | 0.01 | 51 | 1011.8 |
| 20260906190137 | 89 | 121 | 2.0 | 7.0 | 0.00 | 1.22 | 0.01 | 53 | 1011.9 |
| 20260906190110 | 89 | 121 | 1.0 | 7.0 | 0.00 | 1.22 | 0.01 | 42 | 1012.3 |
| 20260906184628 | 88 | 123 | 2.0 | 6.0 | 0.00 | 1.22 | 0.01 | 42 | 1012.3 |
| 20260906184551 | 88 | 123 | 2.0 | 6.0 | 0.00 | 1.22 | 0.01 | 54 | 1012.0 |
| 20260906183104 | 88 | 122 | 1.0 | 6.0 | 0.00 | 1.22 | 0.01 | 43 | 1012.7 |
| 20260906183058 | 88 | 121 | 3.0 | 7.0 | 0.00 | 1.22 | 0.01 | 55 | 1012.3 |
| 20260906181605 | 87 | 352 | 0.0 | 6.0 | 0.00 | 1.22 | 0.01 | 45 | 1012.8 |
| 20260906181547 | 87 | 355 | 1.0 | 5.0 | 0.00 | 1.22 | 0.01 | 57 | 1012.5 |
| 20260906180045 | 86 | 158 | 1.0 | 8.0 | 0.00 | 1.22 | 0.01 | 57 | 1012.7 |
| 20260906174603 | 86 | 163 | 3.0 | 7.0 | 0.00 | 1.22 | 0.01 | 45 | 1013.2 |
| 20260906174543 | 86 | 162 | 4.0 | 9.0 | 0.00 | 1.22 | 0.01 | 56 | 1012.9 |
| 20260906173118 | 85 | 115 | 3.0 | 8.0 | 0.00 | 1.22 | 0.01 | 45 | 1013.6 |
| 20260906173047 | 85 | 115 | 2.0 | 8.0 | 0.00 | 1.22 | 0.01 | 57 | 1013.2 |
| 20260906171610 | 84 | 0 | 1.0 | 6.0 | 0.00 | 1.22 | 0.01 | 47 | 1013.9 |
| 20260906171538 | 84 | 360 | 1.0 | 4.0 | 0.00 | 1.22 | 0.01 | 59 | 1013.6 |
| 20260906170107 | 84 | 333 | 2.0 | 6.0 | 0.00 | 1.22 | 0.01 | 48 | 1014.1 |
| 20260906170037 | 84 | 333 | 2.0 | 5.0 | 0.00 | 1.22 | 0.01 | 60 | 1013.8 |
| 20260906164607 | 83 | 360 | 2.0 | 7.0 | 0.00 | 1.22 | 0.01 | 50 | 1014.2 |
| 20260906164535 | 83 | 355 | 3.0 | 6.0 | 0.00 | 1.22 | 0.01 | 61 | 1014.0 |
| 20260906163105 | 81 | 298 | 0.0 | 5.0 | 0.00 | 1.22 | 0.01 | 51 | 1014.2 |
| 20260906163031 | 81 | 298 | 1.0 | 4.0 | 0.00 | 1.22 | 0.01 | 63 | 1014.0 |
| 20260906161617 | 80 | 0 | 1.0 | 6.0 | 0.00 | 1.22 | 0.01 | 50 | 1014.2 |
| 20260906161532 | 80 | 279 | 0.0 | 5.0 | 0.00 | 1.22 | 0.01 | 62 | 1014.1 |
| 20260906160109 | 79 | 0 | 1.0 | 5.0 | 0.00 | 1.22 | 0.01 | 53 | 1014.3 |
| 20260906160026 | 79 | 56 | 1.0 | 5.0 | 0.00 | 1.22 | 0.01 | 65 | 1014.0 |
| 20260906154605 | 79 | 0 | 0.0 | 4.0 | 0.00 | 1.22 | 0.01 | 54 | 1014.2 |
| 20260906154525 | 79 | 12 | 0.0 | 3.0 | 0.00 | 1.22 | 0.01 | 66 | 1014.0 |
| 20260906153102 | 78 | 65 | 1.0 | 3.0 | 0.00 | 1.22 | 0.01 | 54 | 1014.1 |
| 20260906153028 | 78 | 77 | 1.0 | 3.0 | 0.00 | 1.22 | 0.01 | 66 | 1014.0 |
| 20260906151600 | 77 | 77 | 0.0 | 3.0 | 0.00 | 1.22 | 0.01 | 54 | 1014.1 |
| 20260906151521 | 77 | 77 | 1.0 | 3.0 | 0.00 | 1.22 | 0.01 | 66 | 1014.0 |
| 20260906150059 | 77 | 0 | 0.0 | 3.0 | 0.00 | 1.22 | 0.01 | 54 | 1014.2 |
| 20260906150023 | 76 | 24 | 0.0 | 3.0 | 0.00 | 1.22 | 0.01 | 66 | 1014.1 |
| 20260906144611 | 76 | 0 | 0.0 | 3.0 | 0.00 | 1.22 | 0.01 | 55 | 1014.3 |
| 20260906144518 | 76 | 23 | 0.0 | 3.0 | 0.00 | 1.22 | 0.01 | 66 | 1014.2 |
| 20260906143103 | 75 | 0 | 0.0 | 2.0 | 0.00 | 1.22 | 0.01 | 54 | 1014.3 |
| 20260906143016 | 75 | 360 | 0.0 | 2.0 | 0.00 | 1.22 | 0.01 | 65 | 1014.2 |
| 20260906141620 | 75 | 360 | 0.0 | 2.0 | 0.00 | 1.22 | 0.01 | 54 | 1014.1 |
| 20260906141510 | 75 | 360 | 0.0 | 2.0 | 0.00 | 1.22 | 0.01 | 65 | 1014.1 |
| 20260906140113 | 74 | 360 | 1.0 | 3.0 | 0.00 | 1.22 | 0.01 | 54 | 1014.1 |
| 20260906140027 | 74 | 360 | 1.0 | 3.0 | 0.00 | 1.22 | 0.01 | 65 | 1014.0 |
| 20260906134628 | 74 | 0 | 0.0 | 2.0 | 0.00 | 1.22 | 0.01 | 54 | 1014.1 |
| 20260906134508 | 74 | 360 | 0.0 | 0.0 | 0.00 | 1.22 | 0.01 | 65 | 1014.0 |
| 20260906133100 | 74 | 0 | 0.0 | 2.0 | 0.00 | 1.22 | 0.01 | 54 | 1013.9 |
| 20260906133007 | 74 | 360 | 0.0 | 2.0 | 0.00 | 1.22 | 0.01 | 65 | 1013.7 |
| 20260906131600 | 74 | 0 | 0.0 | 1.0 | 0.00 | 1.22 | 0.01 | 54 | 1013.8 |
| 20260906131505 | 74 | 360 | 0.0 | 1.0 | 0.00 | 1.22 | 0.01 | 65 | 1013.5 |
| 20260906130148 | 74 | 0 | 0.0 | 3.0 | 0.00 | 1.22 | 0.01 | 54 | 1013.7 |
| 20260906130112 | 74 | 360 | 0.0 | 3.0 | 0.00 | 1.22 | 0.01 | 65 | 1013.4 |
| 20260906124611 | 74 | 0 | 0.0 | 1.0 | 0.00 | 1.22 | 0.01 | 54 | 1013.8 |
| 20260906124556 | 74 | 360 | 0.0 | 1.0 | 0.00 | 1.22 | 0.01 | 65 | 1013.5 |
| 20260906123105 | 74 | 0 | 0.0 | 3.0 | 0.00 | 1.22 | 0.01 | 53 | 1013.6 |
| 20260906123056 | 74 | 360 | 0.0 | 2.0 | 0.00 | 1.22 | 0.01 | 65 | 1013.4 |
| 20260906121609 | 74 | 360 | 0.0 | 0.0 | 0.00 | 1.22 | 0.01 | 53 | 1013.4 |
| 20260906121555 | 74 | 360 | 0.0 | 2.0 | 0.00 | 1.22 | 0.01 | 65 | 1013.1 |
| 20260906120112 | 74 | 0 | 0.0 | 0.0 | 0.00 | 1.22 | 0.01 | 54 | 1013.2 |
| 20260906120052 | 74 | 360 | 0.0 | 0.0 | 0.00 | 1.22 | 0.01 | 65 | 1012.9 |
| 20260906114650 | 74 | 360 | 0.0 | 0.0 | 0.00 | 1.22 | 0.01 | 65 | 1012.8 |
| 20260906114602 | 74 | 0 | 0.0 | 1.0 | 0.00 | 1.22 | 0.01 | 53 | 1013.2 |
| 20260906113102 | 74 | 0 | 0.0 | 1.0 | 0.00 | 1.22 | 0.01 | 53 | 1013.1 |
| 20260906113047 | 74 | 360 | 0.0 | 1.0 | 0.00 | 1.22 | 0.01 | 65 | 1012.8 |
| 20260906111604 | 74 | 0 | 0.0 | 2.0 | 0.00 | 1.22 | 0.01 | 53 | 1013.0 |
| 20260906111552 | 74 | 360 | 0.0 | 2.0 | 0.00 | 1.22 | 0.01 | 65 | 1012.6 |
| 20260906110057 | 74 | 0 | 0.0 | 2.0 | 0.00 | 1.22 | 0.01 | 53 | 1012.9 |
| 20260906110046 | 74 | 360 | 0.0 | 2.0 | 0.00 | 1.22 | 0.01 | 65 | 1012.5 |
| 20260906104605 | 74 | 0 | 0.0 | 2.0 | 0.00 | 1.22 | 0.01 | 53 | 1012.7 |
| 20260906104535 | 74 | 360 | 0.0 | 2.0 | 0.00 | 1.22 | 0.01 | 65 | 1012.2 |
| 20260906103104 | 74 | 0 | 0.0 | 0.0 | 0.00 | 1.22 | 0.01 | 53 | 1012.4 |
| 20260906103032 | 74 | 360 | 0.0 | 0.0 | 0.00 | 1.22 | 0.01 | 65 | 1012.1 |
| 20260906101607 | 74 | 0 | 0.0 | 4.0 | 0.00 | 1.22 | 0.01 | 53 | 1012.5 |
| 20260906101529 | 74 | 360 | 0.0 | 4.0 | 0.00 | 1.22 | 0.01 | 65 | 1012.2 |
| 20260906100100 | 74 | 0 | 0.0 | 2.0 | 0.00 | 1.22 | 0.01 | 53 | 1012.2 |
| 20260906100033 | 74 | 360 | 0.0 | 2.0 | 0.00 | 1.22 | 0.01 | 65 | 1011.9 |
| 20260906094601 | 74 | 0 | 0.0 | 2.0 | 0.00 | 1.22 | 0.01 | 53 | 1012.3 |
| 20260906094528 | 74 | 360 | 0.0 | 2.0 | 0.00 | 1.22 | 0.01 | 65 | 1012.0 |
| 20260906093103 | 74 | 360 | 0.0 | 3.0 | 0.00 | 1.22 | 0.01 | 53 | 1012.3 |
| 20260906093041 | 74 | 360 | 0.0 | 1.0 | 0.00 | 1.22 | 0.01 | 65 | 1012.0 |
| 20260906091602 | 74 | 0 | 0.0 | 2.0 | 0.00 | 1.22 | 0.01 | 53 | 1011.9 |
| 20260906091519 | 74 | 360 | 0.0 | 2.0 | 0.00 | 1.22 | 0.01 | 65 | 1011.8 |
| 20260906090103 | 74 | 360 | 0.0 | 2.0 | 0.00 | 1.22 | 0.01 | 53 | 1011.9 |
| 20260906090019 | 74 | 360 | 0.0 | 2.0 | 0.00 | 1.22 | 0.01 | 65 | 1011.7 |
| 20260906084606 | 74 | 0 | 0.0 | 3.0 | 0.00 | 1.22 | 0.01 | 53 | 1011.9 |
| 20260906084516 | 74 | 360 | 0.0 | 2.0 | 0.00 | 1.22 | 0.01 | 65 | 1011.8 |
| 20260906083104 | 74 | 0 | 0.0 | 2.0 | 0.00 | 1.22 | 0.01 | 53 | 1012.0 |
| 20260906083014 | 74 | 360 | 0.0 | 2.0 | 0.00 | 1.22 | 0.01 | 64 | 1011.8 |
| 20260906081601 | 74 | 360 | 0.0 | 2.0 | 0.00 | 1.22 | 0.01 | 53 | 1012.2 |
| 20260906081506 | 74 | 360 | 0.0 | 2.0 | 0.00 | 1.22 | 0.01 | 64 | 1011.8 |
| 20260906080006 | 74 | 360 | 0.0 | 1.0 | 0.00 | 1.22 | 0.01 | 64 | 1011.7 |
| 20260906074603 | 74 | 0 | 0.0 | 2.0 | 0.00 | 1.22 | 0.01 | 53 | 1011.9 |
| 20260906074516 | 74 | 360 | 0.0 | 2.0 | 0.00 | 1.22 | 0.01 | 64 | 1011.7 |
| 20260906073100 | 73 | 0 | 0.0 | 1.0 | 0.00 | 1.22 | 0.01 | 53 | 1011.9 |
| 20260906073002 | 73 | 360 | 0.0 | 1.0 | 0.00 | 1.22 | 0.01 | 64 | 1011.7 |
| 20260906071604 | 73 | 0 | 0.0 | 1.0 | 0.00 | 1.22 | 0.01 | 52 | 1012.0 |
| 20260906071559 | 73 | 360 | 0.0 | 0.0 | 0.00 | 1.22 | 0.01 | 64 | 1011.9 |
| 20260906070058 | 73 | 0 | 0.0 | 1.0 | 0.00 | 1.22 | 0.01 | 52 | 1012.2 |
| 20260906070054 | 73 | 360 | 0.0 | 1.0 | 0.00 | 1.22 | 0.01 | 64 | 1012.0 |
| 20260906064602 | 73 | 0 | 0.0 | 2.0 | 0.00 | 1.22 | 0.01 | 52 | 1012.5 |
| 20260906064549 | 73 | 360 | 0.0 | 1.0 | 0.00 | 1.22 | 0.01 | 64 | 1012.2 |
| 20260906063101 | 74 | 360 | 1.0 | 3.0 | 0.01 | 1.22 | 0.01 | 52 | 1012.4 |
| 20260906063048 | 74 | 360 | 1.0 | 3.0 | 0.01 | 1.22 | 0.01 | 63 | 1012.2 |
| 20260906061626 | 74 | 0 | 0.0 | 0.0 | 0.01 | 1.22 | 0.01 | 51 | 1012.5 |
| 20260906061548 | 74 | 360 | 0.0 | 0.0 | 0.01 | 1.22 | 0.01 | 63 | 1012.3 |
| 20260906060121 | 73 | 0 | 0.0 | 0.0 | 0.01 | 1.22 | 0.01 | 51 | 1012.5 |
| 20260906060038 | 73 | 360 | 0.0 | 0.0 | 0.01 | 1.22 | 0.01 | 63 | 1012.3 |
| 20260906054601 | 73 | 0 | 1.0 | 3.0 | 0.01 | 1.22 | 0.01 | 51 | 1012.3 |
| 20260906054532 | 73 | 360 | 1.0 | 3.0 | 0.01 | 1.22 | 0.01 | 63 | 1012.1 |
| 20260906053104 | 74 | 0 | 1.0 | 3.0 | 0.00 | 1.21 | 0.00 | 51 | 1012.2 |
| 20260906053027 | 74 | 360 | 0.0 | 3.0 | 0.00 | 1.21 | 0.00 | 62 | 1012.0 |
| 20260906051606 | 74 | 0 | 0.0 | 0.0 | 0.00 | 1.21 | 0.00 | 51 | 1012.1 |
| 20260906051525 | 74 | 360 | 0.0 | 0.0 | 0.00 | 1.21 | 0.00 | 62 | 1011.8 |
| 20260906050104 | 73 | 0 | 0.0 | 0.0 | 0.00 | 1.21 | 0.00 | 51 | 1011.9 |
| 20260906050019 | 73 | 360 | 0.0 | 0.0 | 0.00 | 1.21 | 0.00 | 62 | 1011.5 |
| 20260906044559 | 74 | 0 | 0.0 | 2.0 | 0.00 | 1.21 | 1.21 | 51 | 1011.7 |
| 20260906044518 | 73 | 360 | 0.0 | 2.0 | 0.00 | 1.21 | 1.21 | 62 | 1011.4 |
| 20260906043106 | 74 | 0 | 0.0 | 0.0 | 0.00 | 1.21 | 1.21 | 51 | 1011.8 |
| 20260906043018 | 74 | 360 | 0.0 | 0.0 | 0.00 | 1.21 | 1.21 | 62 | 1011.4 |
| 20260906041602 | 74 | 0 | 0.0 | 0.0 | 0.00 | 1.21 | 1.21 | 51 | 1011.7 |
| 20260906041532 | 74 | 360 | 0.0 | 0.0 | 0.00 | 1.21 | 1.21 | 62 | 1011.3 |
| 20260906040106 | 74 | 0 | 0.0 | 0.0 | 0.00 | 1.21 | 1.21 | 50 | 1011.8 |
| 20260906040020 | 74 | 360 | 0.0 | 0.0 | 0.00 | 1.21 | 1.21 | 62 | 1011.4 |
| 20260906034606 | 74 | 0 | 0.0 | 0.0 | 0.00 | 1.21 | 1.21 | 51 | 1011.6 |
| 20260906034516 | 74 | 360 | 0.0 | 0.0 | 0.00 | 1.21 | 1.21 | 62 | 1011.2 |
| 20260906033059 | 74 | 0 | 0.0 | 0.0 | 0.00 | 1.21 | 1.21 | 50 | 1011.5 |
| 20260906033016 | 74 | 360 | 0.0 | 0.0 | 0.00 | 1.21 | 1.21 | 61 | 1011.1 |
| 20260906031557 | 74 | 0 | 0.0 | 0.0 | 0.00 | 1.21 | 1.21 | 50 | 1011.3 |
| 20260906031514 | 74 | 360 | 0.0 | 0.0 | 0.00 | 1.21 | 1.21 | 61 | 1010.9 |
| 20260906030100 | 74 | 0 | 0.0 | 0.0 | 0.00 | 1.21 | 1.21 | 50 | 1011.1 |
| 20260906030013 | 74 | 360 | 0.0 | 0.0 | 0.00 | 1.21 | 1.21 | 61 | 1010.7 |
| 20260906024603 | 74 | 0 | 0.0 | 0.0 | 0.00 | 1.21 | 1.21 | 50 | 1010.9 |
| 20260906024512 | 74 | 360 | 0.0 | 0.0 | 0.00 | 1.21 | 1.21 | 61 | 1010.4 |
| 20260906023107 | 75 | 0 | 0.0 | 0.0 | 0.00 | 1.21 | 1.21 | 50 | 1011.1 |
| 20260906023014 | 75 | 360 | 0.0 | 0.0 | 0.00 | 1.21 | 1.21 | 61 | 1010.7 |
| 20260906021604 | 75 | 0 | 0.0 | 0.0 | 0.00 | 1.21 | 1.21 | 50 | 1011.3 |
| 20260906021512 | 75 | 360 | 0.0 | 0.0 | 0.00 | 1.21 | 1.21 | 61 | 1010.7 |
| 20260906020101 | 75 | 0 | 0.0 | 0.0 | 0.00 | 1.21 | 1.21 | 50 | 1011.3 |
| 20260906020011 | 75 | 360 | 0.0 | 0.0 | 0.00 | 1.21 | 1.21 | 62 | 1010.8 |
| 20260906014608 | 75 | 0 | 0.0 | 0.0 | 0.00 | 1.21 | 1.21 | 50 | 1011.3 |
| 20260906014525 | 75 | 360 | 0.0 | 0.0 | 0.00 | 1.21 | 1.21 | 62 | 1010.9 |
| 20260906013059 | 75 | 0 | 0.0 | 0.0 | 0.00 | 1.21 | 1.21 | 50 | 1011.7 |
| 20260906013014 | 75 | 360 | 0.0 | 0.0 | 0.00 | 1.21 | 1.21 | 62 | 1011.1 |
| 20260906011606 | 75 | 0 | 0.0 | 0.0 | 0.02 | 1.21 | 1.21 | 50 | 1011.7 |
| 20260906011510 | 75 | 360 | 0.0 | 0.0 | 0.02 | 1.21 | 1.21 | 62 | 1011.1 |
| 20260906010030 | 75 | 360 | 0.0 | 0.0 | 0.03 | 1.21 | 1.21 | 62 | 1011.5 |
| 20260906004604 | 75 | 0 | 0.0 | 0.0 | 0.03 | 1.21 | 1.21 | 51 | 1012.0 |
| 20260906004509 | 75 | 360 | 0.0 | 0.0 | 0.03 | 1.21 | 1.21 | 62 | 1011.5 |
| 20260906003101 | 75 | 0 | 0.0 | 0.0 | 0.04 | 1.21 | 1.21 | 51 | 1012.3 |
| 20260906003008 | 75 | 360 | 0.0 | 0.0 | 0.04 | 1.21 | 1.21 | 62 | 1011.9 |
| 20260906001558 | 75 | 0 | 0.0 | 0.0 | 0.02 | 1.19 | 1.19 | 51 | 1012.5 |
| 20260906001507 | 75 | 360 | 0.0 | 0.0 | 0.02 | 1.19 | 1.19 | 63 | 1012.1 |
| 20260906000111 | 76 | 0 | 0.0 | 0.0 | 0.02 | 1.17 | 1.17 | 52 | 1012.5 |
| 20260906000107 | 76 | 360 | 0.0 | 0.0 | 0.02 | 1.18 | 1.18 | 63 | 1012.1 |
| 20260905234606 | 75 | 0 | 0.0 | 1.0 | 0.02 | 1.17 | 1.17 | 52 | 1012.4 |
| 20260905234506 | 75 | 360 | 0.0 | 0.0 | 0.02 | 1.18 | 1.18 | 63 | 1012.0 |
| 20260905233117 | 76 | 0 | 0.0 | 1.0 | 0.01 | 1.16 | 1.16 | 53 | 1012.5 |
| 20260905233005 | 76 | 360 | 0.0 | 1.0 | 0.01 | 1.17 | 1.17 | 64 | 1012.1 |
| 20260905231601 | 75 | 0 | 0.0 | 2.0 | 0.01 | 1.16 | 1.16 | 52 | 1012.7 |
| 20260905231506 | 76 | 360 | 0.0 | 2.0 | 0.01 | 1.17 | 1.17 | 64 | 1012.2 |
| 20260905230105 | 76 | 0 | 1.0 | 8.0 | 0.00 | 1.16 | 1.16 | 53 | 1012.5 |
| 20260905230006 | 76 | 360 | 1.0 | 6.0 | 0.00 | 1.15 | 1.15 | 65 | 1012.1 |
| 20260905224604 | 76 | 360 | 3.0 | 6.0 | 0.00 | 1.16 | 1.16 | 53 | 1012.9 |
| 20260905224505 | 76 | 360 | 2.0 | 6.0 | 0.00 | 1.15 | 1.15 | 65 | 1012.5 |
| 20260905223105 | 76 | 360 | 2.0 | 6.0 | 0.01 | 1.16 | 1.16 | 54 | 1012.9 |
| 20260905223016 | 76 | 360 | 2.0 | 6.0 | 0.01 | 1.15 | 1.15 | 66 | 1012.4 |
| 20260905221605 | 75 | 360 | 1.0 | 4.0 | 0.09 | 1.16 | 1.16 | 55 | 1012.4 |
| 20260905221503 | 75 | 360 | 1.0 | 4.0 | 0.09 | 1.15 | 1.15 | 66 | 1011.8 |
| 20260905220105 | 75 | 360 | 0.0 | 3.0 | 0.41 | 1.16 | 1.16 | 55 | 1012.1 |
| 20260905220003 | 75 | 360 | 0.0 | 3.0 | 0.42 | 1.15 | 1.15 | 67 | 1011.3 |
| 20260905214604 | 75 | 360 | 0.0 | 4.0 | 1.16 | 1.16 | 1.16 | 57 | 1011.9 |
| 20260905214503 | 75 | 360 | 0.0 | 4.0 | 1.15 | 1.15 | 1.15 | 68 | 1011.2 |
| 20260905213113 | 74 | 0 | 0.0 | 4.0 | 1.15 | 1.15 | 1.15 | 57 | 1012.0 |
| 20260905213001 | 74 | 360 | 0.0 | 4.0 | 1.14 | 1.14 | 1.14 | 68 | 1011.3 |